Regional Weather Roundup
Issued by NWS

Home | Current Version | Previous Version | Graphics & Text | Print | Product List | Glossary On
Versions: 1 2 3 4 5 6 7 8 9 10 11 12 13 14 15 16 17 18 19 20 21 22 23 24 25 26 27 28 29 30 31 32 33 34 35 36 37 38 39 40 41 42 43 44 45 46 47 48 49 50
715
ASUS45 KBOU 041707
RWRCO

WEATHER ROUNDUP FOR COLORADO
NATIONAL WEATHER SERVICE DENVER/BOULDER CO
1000 AM MST SUN DEC 04 2016

NOTE: "FAIR" INDICATES FEW OR NO CLOUDS BELOW 12000 FEET WITH NO
SIGNIFICANT WEATHER AND/OR OBSTRUCTIONS TO VISIBILITY.

COZ001>005-013-030-031-041800-
...NORTHWEST COLORADO...

CITY           SKY/WX    TMP DP  RH WIND       PRES   REMARKS
CRAIG          FAIR      24  11  57 E12       30.16F WCI  13
HAYDEN         PTSUNNY   19  10  68 SE9       30.14F WCI   9
MEEKER         FAIR      17  13  84 CALM      30.18F
MOUNT WERNER   NOT AVBL
STEAMBOAT SPGS CLOUDY    13  10  85 CALM      30.15F
WALDEN           N/A     27   9  46 S15       30.05S WCI  15
$$

COZ006>008-011-041800-
...WEST CENTRAL VALLEYS...

CITY           SKY/WX    TMP DP  RH WIND       PRES   REMARKS
GRAND JUNCTION FAIR      32  17  54 E9        30.25S WCI  24
MONTROSE       FAIR      25  12  58 SW3       30.27S
EAGLE          SUNNY     19   9  63 CALM      30.25F
RIFLE          FAIR      23  14  68 CALM      30.25F
DELTA          FAIR      29  15  56 CALM      30.27S
NUCLA          FAIR      27   9  46 CALM      30.28R
$$

COZ017>023-064>068-041800-
...SOUTHWEST COLORADO...

CITY           SKY/WX    TMP DP  RH WIND       PRES   REMARKS
DURANGO        FAIR      25  21  85 CALM      30.19S
CORTEZ         FAIR      29  12  49 CALM      30.21S
PAGOSA SPRINGS FAIR      23  22  95 CALM      30.19S
TELLURIDE      FAIR      26  10  50 E5        30.20S WCI  21
WOLF CREEK PAS FAIR      23   3  42 NW7       30.22S WCI  15
$$

COZ009-010-012-014-032>034-037-058>063-041800-
...CENTRAL COLORADO...

CITY           SKY/WX    TMP DP  RH WIND       PRES   REMARKS
ASPEN          FAIR      19   6  57 N3        30.17S
BUENA VISTA    FAIR      26   3  37 E3        30.10S
COPPER MTN     NOT AVBL
BERTHOUD PASS  FAIR      10   0  61 NW33G46   30.04R WCI -13
COTTONWOOD PAS FAIR      32  -4  21 SE10      30.08S WCI  24
GUNNISON       FAIR      10   2  69 CALM      30.27F
KREMMLING      CLOUDY    19   9  63 CALM      30.19F
LEADVILLE      FAIR      25  -5  26 VRB3      30.11S
SALIDA         FAIR      33   5  30 N10       30.17S WCI  25
SUNLIGHT       FAIR      14  12  92 S8        30.18S WCI   3
WILKERSON PASS FAIR      21  -2  35 NW14G20   30.07F WCI   8
$$

COZ069>075-041800-
...SAN LUIS VALLEY/SANGRE DE CRISTO MOUNTAINS...

CITY           SKY/WX    TMP DP  RH WIND       PRES   REMARKS
ALAMOSA        FAIR      18  11  74 VRB5      30.20R WCI  11
LA VETA PASS   FAIR      23   3  42 NE24G31   30.12R WCI   7
SAGUACHE       FAIR      27   9  46 SE6       30.19S WCI  20
$$

COZ035-036-038>040-041800-
...NORTHERN COLORADO FRONT RANGE...

CITY           SKY/WX    TMP DP  RH WIND       PRES   REMARKS
DENVER INTL AP FAIR      41   7  24 S14       29.97F
DMNS CITY PARK   N/A     41   2  19 SE10      29.97F
AURORA         MOSUNNY   40   6  24 SW10      29.97F
FRONT RANGE AP NOT AVBL
ERIE MUNI ARPT FAIR      32  10  39 CALM      29.98F
BOULDER MUN AP FAIR      34  12  40 E6        29.96F WCI  29
CENTENNIAL     FAIR      43   1  17 SW5       29.97F
BROOMFIELD     MOSUNNY   41   3  20 E3        29.98S
FORT COLLINS   FAIR      27  16  63 CALM      29.99F
LONGMONT       FAIR      36  13  39 NE7       29.99F
$$

COZ041-046-047-076>085-087-088-041800-
...PIKES PEAK/PALMER DIVIDE AND SOUTHERN FOOTHILLS...

CITY           SKY/WX    TMP DP  RH WIND       PRES   REMARKS
COLO. SPRINGS  FAIR      34  11  38 CALM      30.03F
A. F. ACADEMY  FAIR      33  10  38 S6        30.02S WCI  28
SCHRIEVER AFB  NOT AVBL
ELLICOTT       LGT RAIN N/A N/A N/A SW7       30.03R
FALCON         FAIR      36   6  29 SW7       30.03S
FORT CARSON    FAIR      33  10  39 SE3       30.03S
LIMON          FAIR      38  10  31 S15       30.03F
MONUMENT HILL  FAIR      37   5  25 SW8       30.01S
TRINIDAD       FAIR      36  13  38 VRB5      30.08F
$$

COZ042>045-048>051-090-091-041800-
...NORTHEAST COLORADO...

CITY           SKY/WX    TMP DP  RH WIND       PRES   REMARKS
GREELEY ARPT   FAIR      34  15  46 S5        30.01F WCI  30
AKRON          FAIR      37  12  35 SW13      30.01F
BURLINGTON     FAIR      41  12  30 SW7       30.06F
WRAY           FAIR      41  12  30 W9        30.04F
STERLING       FAIR      32  16  51 SW10      30.01F WCI  24
HOLYOKE        FAIR      41  18  38 W8        30.02F
FORT MORGAN    FAIR      31  14  48 SW5       30.02F WCI  27
$$

COZ086-089-092>099-041800-
...SOUTHEAST COLORADO...

CITY           SKY/WX    TMP DP  RH WIND       PRES   REMARKS
PUEBLO         FAIR      33  13  43 W3        30.07F
LA JUNTA       FAIR      33  18  53 SW7       30.10F WCI  27
LAMAR          FAIR      33  24  69 W9        30.11S WCI  25
SPRINGFIELD      N/A     42  21  43 N7        30.10F
$$




USA.gov is the U.S. government's official web portal to all federal, state and local government web resources and services.